Temperature
17 17 17 17 17 17 17 17 17 17 17 17 17 17 17 17 17 17 17 17 17 17 17 17 17 17 17 17 17 17 17 17 16 16 16 16 16 16 16 16 16 16 16
17 17 17 17 17 17 17 17 17 17 17 17 17 17 17 17 17 17 17 17 17 17 17 17 17 17 17 17 17 17 17 17 16 16 16 16 16 16 16 16 16 16 16
17 17 17 17 17 17 17 17 17 17 17 17 17 17 17 17 17 17 17 17 17 17 17 17 17 17 17 17 17 17 17 17 16 16 16 16 16 16 16 16 16 16 16
18 18 17 17 17 17 17 17 17 17 17 17 17 17 17 17 17 17 17 17 17 17 17 17 17 17 17 17 17 17 17 16 16 16 16 16 16 16 16 16 16 16 16
18 17 17 17 17 17 17 17 17 17 17 17 17 17 17 17 17 17 17 17 17 17 17 17 17 17 17 17 17 17 17 17 16 16 16 16 16 16 16 16 16 16 16
17 17 17 17 17 17 17 17 17 17 17 17 17 17 17 17 17 17 17 17 17 17 17 16 17 17 17 17 17 17 17 17 16 16 16 16 16 16 16 16 16 15 15
17 18 17 17 17 17 17 17 17 17 17 17 17 17 17 17 17 17 17 17 17 17 16 16 16 16 16 16 17 17 17 17 16 16 16 16 16 16 16 16 15 15 15
17 18 18 17 17 17 17 17 17 17 17 17 17 17 18 17 17 17 17 17 17 16 16 16 16 16 16 16 16 17 16 16 16 16 16 16 16 16 16 16 15 15 15
18 18 17 17 17 17 17 17 17 17 17 17 17 17 18 18 18 17 17 16 16 16 16 16 16 16 16 16 16 16 16 16 16 16 16 16 16 16 16 16 15 15 15
18 18 18 18 18 17 17 17 17 17 17 17 17 17 17 17 17 17 17 17 16 16 16 16 16 16 16 16 16 16 16 16 16 16 16 16 16 16 16 15 15 15 15
18 18 18 18 18 17 17 17 17 17 17 17 17 17 17 17 17 17 17 17 16 16 16 16 16 16 15 15 15 16 16 16 16 16 16 16 16 16 15 15 15 15 15
18 18 18 18 18 18 18 18 17 17 17 17 17 17 17 17 17 17 17 17 17 16 16 16 15 15 15 15 15 16 16 16 16 16 16 15 15 15 15 15 15 15 15
18 18 18 18 18 18 18 17 17 17 17 17 17 17 17 17 17 17 17 17 16 16 16 16 15 15 15 15 15 15 15 16 15 15 15 15 15 15 15 15 15 15 15
18 18 18 18 18 18 17 17 17 17 17 17 17 17 17 17 16 17 17 17 17 17 16 16 16 15 15 15 15 15 15 15 15 15 15 15 15 15 15 15 15 14 14
18 18 18 18 18 17 17 17 17 17 17 17 17 17 16 16 16 16 16 16 17 17 17 16 16 15 15 15 15 15 14 15 15 15 15 15 15 14 14 14 14 14 14
18 18 18 17 17 17 17 17 17 17 17 17 17 17 17 16 16 16 16 16 16 16 17 16 15 15 15 15 15 14 14 15 15 15 15 14 14 14 14 14 14 14 14
18 18 18 18 17 17 17 17 17 17 17 17 17 17 17 17 16 16 16 16 16 16 16 16 15 15 14 14 14 14 14 14 14 14 14 14 14 14 14 14 13 13 13
18 18 18 18 17 17 17 17 17 17 17 17 17 17 17 16 16 16 16 16 16 16 15 15 15 15 14 14 14 14 14 14 14 14 14 13 13 13 13 13 13 13 13
18 18 18 17 17 17 17 17 17 17 17 17 17 17 17 16 16 16 16 16 16 15 15 15 15 14 14 14 14 14 13 13 13 13 13 13 13 13 13 13 13 12 12
18 17 17 17 17 17 17 16 16 16 16 16 16 17 17 16 16 16 16 16 15 15 15 15 15 15 14 14 14 14 13 13 13 13 13 13 13 13 13 12 12 12 12
17 17 17 17 17 17 16 16 16 16 16 16 16 16 16 16 16 16 16 15 15 15 15 15 15 15 14 14 14 13 13 13 13 13 13 13 13 13 12 12 12 12 12
17 17 17 17 16 16 16 16 16 16 16 16 16 16 16 16 16 16 16 15 15 15 15 15 15 14 14 14 13 13 13 13 13 13 12 12 12 12 12 12 12 12 12
17 17 17 17 16 17 16 16 16 16 16 16 15 15 15 16 16 15 15 15 15 15 15 14 14 14 14 13 13 13 13 13 12 12 12 12 12 12 12 12 12 12 11
16 16 16 16 16 16 16 16 16 15 15 15 15 15 15 15 15 15 15 14 14 14 14 14 14 14 13 13 13 13 13 12 12 12 12 12 12 12 11 11 11 11 11
16 16 16 16 16 16 16 16 16 15 15 15 15 15 15 15 15 15 14 14 14 14 14 14 14 13 13 13 13 12 12 12 12 12 12 12 12 11 11 11 11 11 11
16 16 16 16 16 16 16 16 15 15 14 14 14 14 14 14 14 14 14 13 13 13 13 13 13 13 13 13 13 12 12 12 12 12 12 11 11 11 11 11 11 11 11
Wind_Speed
3 3 3 3 3 4 5 3 3 3 3 3 3 3 2 2 1 2 5 9 9 9 9 9 9 10 10 10 10 10 10 10 10 10 10 9 9 9 10 9 9 9 9
3 3 3 3 3 3 3 3 3 3 3 2 3 3 3 3 3 3 4 8 10 10 10 9 9 9 10 11 11 11 11 11 11 11 11 11 11 10 10 10 10 10 10
3 2 2 3 3 3 4 3 3 3 3 3 3 2 3 3 3 3 3 3 6 11 11 9 8 8 9 9 10 11 12 12 12 13 13 12 12 12 12 12 12 12 12
3 3 2 3 3 3 3 3 3 3 2 2 2 2 2 3 3 4 4 4 3 4 8 9 7 7 8 8 9 10 10 11 12 13 13 14 13 13 13 13 13 12 12
4 4 3 2 3 3 3 3 3 2 2 1 2 2 3 2 3 3 3 3 3 3 4 8 8 6 6 6 6 8 9 10 11 13 13 14 14 14 15 14 14 14 13
5 4 4 3 4 3 2 2 2 1 1 1 2 1 2 2 2 2 3 3 3 3 3 4 5 6 6 5 4 5 7 8 9 10 11 13 14 15 16 16 16 15 15
5 5 3 3 3 3 3 3 2 3 2 2 2 2 2 3 2 2 2 2 2 2 2 2 3 3 5 7 5 4 5 6 7 8 9 10 11 13 14 14 15 16 16
5 5 4 4 3 3 4 4 3 3 2 3 2 2 2 3 3 2 2 2 2 2 2 2 2 3 3 3 4 5 4 4 5 6 8 9 9 10 11 13 14 15 15
4 4 4 4 4 4 4 4 4 5 4 3 3 3 2 2 1 2 2 2 2 1 2 1 2 2 2 2 2 5 5 5 6 6 7 8 8 9 9 9 11 12 13
4 5 4 4 4 4 4 5 5 5 5 4 4 3 3 1 2 1 2 3 2 2 2 2 2 2 3 3 2 1 3 5 5 6 7 7 8 9 9 9 9 9 10
5 5 5 5 5 4 4 4 4 6 5 5 4 3 4 3 4 3 2 2 3 2 2 3 2 2 2 2 2 1 4 4 5 5 6 6 7 7 8 8 8 8 8
4 5 5 5 5 4 5 5 5 6 5 5 5 4 4 4 4 4 4 4 3 2 3 3 3 2 2 2 2 2 3 3 3 4 4 5 5 6 6 7 7 7 7
4 5 5 5 5 5 5 5 5 5 6 6 6 5 5 5 4 4 4 3 3 3 3 4 3 3 3 3 2 3 3 3 3 3 3 4 5 5 5 5 5 5 6
4 4 5 5 5 6 6 5 5 6 6 6 6 6 5 5 4 5 4 4 4 4 4 4 3 3 2 2 2 4 3 4 3 3 3 3 3 4 3 3 3 4 4
4 5 5 5 5 6 6 6 5 5 6 6 6 7 6 5 5 5 5 5 5 5 3 3 3 2 2 2 2 3 2 3 4 4 3 3 3 3 3 3 3 3 3
5 6 6 6 6 6 6 6 6 6 7 6 5 6 6 6 5 5 5 5 6 6 5 2 3 2 2 2 3 3 3 5 5 5 4 4 4 4 4 4 3 3 3
6 6 6 6 6 7 6 6 7 7 8 7 7 7 7 6 5 5 5 5 5 5 6 4 3 3 3 4 2 3 4 4 4 5 5 4 4 4 4 4 4 4 4
6 7 7 7 7 7 7 7 8 8 8 8 8 8 8 6 7 6 5 6 5 5 6 6 4 4 5 5 4 4 3 3 3 5 6 5 5 5 5 5 4 4 4
6 6 7 7 7 7 7 8 8 8 8 8 8 8 8 7 7 6 6 6 6 6 6 6 6 4 4 4 4 4 4 3 4 6 7 7 6 6 6 6 5 5 5
6 6 7 7 7 8 8 8 8 8 8 7 7 8 8 8 8 7 6 7 6 6 6 6 6 5 4 4 5 5 4 4 4 4 4 5 7 8 8 7 6 6 6
6 6 6 7 7 8 7 8 8 8 8 7 7 7 7 6 4 5 5 6 6 6 6 7 7 6 5 4 5 5 5 4 4 4 3 4 5 5 6 8 8 7 7
6 6 6 7 7 6 3 4 6 7 7 7 7 6 6 6 6 5 3 3 4 6 7 7 7 6 6 6 5 5 5 4 4 3 5 4 4 4 4 5 6 8 8
6 6 6 6 6 4 4 5 6 7 7 6 7 7 6 6 7 7 7 8 7 6 7 8 7 7 6 5 6 6 5 6 5 3 4 5 4 4 4 4 8 10 10
5 5 6 6 6 5 5 6 7 8 7 7 7 7 7 7 6 6 7 7 8 8 9 9 7 7 5 4 6 7 7 7 6 4 5 5 4 4 4 5 9 10 10
5 6 6 6 7 6 5 7 8 7 7 7 7 6 6 7 4 5 7 8 8 7 7 6 4 4 2 3 4 6 6 6 6 5 5 5 4 4 4 4 7 12 11
7 6 6 6 7 7 5 6 8 7 7 6 5 6 6 6 5 6 8 8 9 7 6 6 7 8 7 6 7 7 6 6 5 4 4 4 4 3 3 4 4 6 8
Wind_Direction
148 145 147 153 157 139 150 167 169 157 169 180 186 176 189 185 172 169 150 165 184 195 201 205 205 204 203 204 204 206 207 207 206 204 206 208 208 209 208 211 211 211 212
154 162 162 163 157 152 156 168 177 180 191 189 201 198 209 196 179 195 183 171 184 196 206 212 212 212 211 212 213 212 212 213 213 212 213 213 215 216 216 218 217 218 219
167 182 171 167 158 157 157 185 183 194 201 192 199 206 212 210 194 198 212 202 187 191 199 207 210 213 213 214 216 217 216 218 219 218 218 218 219 220 221 224 226 226 226
187 199 189 175 176 186 183 182 191 194 195 196 192 217 212 196 205 209 218 212 213 200 186 188 198 209 214 217 221 220 219 220 221 222 222 222 222 222 222 224 227 228 228
196 200 201 182 202 205 199 212 177 200 194 195 199 192 203 199 210 215 217 211 209 219 204 170 182 198 213 222 229 224 223 225 225 225 226 226 226 226 225 227 230 230 229
198 204 202 196 210 206 201 209 203 197 205 207 232 185 198 184 202 206 221 207 203 214 218 206 192 191 193 209 226 228 230 229 228 227 227 231 232 230 228 229 229 229 229
207 209 216 200 210 210 209 207 206 202 207 204 203 199 200 193 194 205 220 228 210 210 218 218 217 214 187 189 201 224 233 232 230 226 226 229 232 231 229 230 230 229 229
219 212 210 216 209 208 213 219 216 228 224 208 219 221 213 196 195 197 192 212 221 201 201 207 209 213 239 202 174 196 224 233 238 234 230 231 232 234 235 235 234 232 232
219 225 216 225 224 222 219 220 220 226 233 228 230 242 243 222 181 173 185 195 210 227 227 205 215 220 221 228 207 185 210 232 245 249 244 239 235 234 235 237 237 237 236
212 216 218 222 226 222 218 223 218 225 230 228 216 226 254 275 237 202 195 184 194 221 252 250 233 214 222 225 209 195 206 227 243 251 252 247 240 238 237 236 239 239 235
209 216 220 222 222 220 220 226 225 227 226 228 222 211 214 218 231 232 229 225 209 215 220 235 240 232 228 237 237 212 203 221 238 248 251 247 240 239 239 236 237 237 238
209 210 215 221 222 222 218 219 220 220 227 232 233 227 221 219 219 220 233 231 227 219 219 229 235 231 234 236 214 132 167 209 228 241 250 245 238 239 238 232 230 231 238
217 214 220 221 224 221 220 216 214 223 224 228 230 230 233 239 239 236 239 242 242 233 221 223 221 221 225 226 200 161 169 193 218 234 244 241 233 227 228 228 229 232 241
228 217 219 223 226 224 222 215 220 219 224 227 230 231 232 234 237 236 238 239 240 233 217 227 211 209 220 222 160 192 181 178 205 215 224 226 219 212 207 212 220 224 232
223 217 221 224 229 229 226 220 222 225 225 225 223 219 226 229 233 236 236 238 246 251 239 213 220 198 203 205 176 213 208 170 190 196 203 201 198 198 195 195 197 202 210
224 222 224 226 229 230 228 226 222 219 220 223 227 229 228 228 228 231 235 235 241 255 263 232 217 211 220 224 186 219 212 166 179 191 198 197 195 197 194 191 189 189 189
220 222 224 226 228 231 231 229 230 226 224 224 223 221 223 230 229 226 231 233 234 234 243 249 227 206 213 241 213 224 218 208 182 180 192 195 198 199 196 190 186 186 185
221 222 224 226 228 228 226 226 229 229 228 227 225 223 224 220 221 230 230 229 229 228 233 243 238 218 219 225 223 230 227 216 201 167 179 192 202 203 198 193 189 190 194
225 227 225 227 229 229 229 230 230 230 232 233 229 225 225 224 224 222 224 224 225 224 227 236 242 231 230 215 215 221 226 234 225 180 180 188 198 201 200 197 196 194 195
225 231 232 232 232 233 233 234 236 236 235 236 235 231 227 224 225 223 222 224 226 227 224 232 238 232 224 212 219 223 222 221 233 212 189 194 192 194 196 195 198 196 196
227 231 238 239 237 234 234 234 236 237 239 239 234 231 228 220 226 231 231 221 221 228 228 230 235 235 227 216 226 230 235 228 227 230 222 209 198 200 196 195 199 200 199
230 231 236 241 243 242 215 234 244 237 237 237 235 231 219 206 198 198 222 246 248 236 238 238 239 239 235 229 232 239 238 237 237 217 231 228 219 218 211 204 186 191 199
234 238 241 242 243 242 210 217 232 233 233 235 235 235 233 217 208 215 207 210 225 238 249 253 250 250 242 233 237 237 235 244 250 223 227 232 218 226 221 199 174 187 199
238 245 248 249 247 238 208 213 227 232 238 235 231 229 230 227 219 216 220 222 226 225 228 235 243 249 248 241 230 238 242 236 236 213 217 237 223 230 226 200 177 184 193
245 247 249 251 251 244 217 212 224 233 230 230 230 228 227 227 203 219 225 228 231 231 217 215 239 253 272 249 249 243 234 235 235 215 212 239 236 237 231 220 187 181 189
240 240 243 248 252 252 227 214 220 232 227 226 223 223 222 222 196 208 225 230 232 230 224 212 214 222 226 214 211 230 239 242 241 227 196 225 232 229 234 218 202 193 198
Height
1551 1552 1553 1554 1555 1556 1557 1558 1560 1561 1562 1563 1565 1566 1567 1568 1569 1569 1569 1569 1569 1570 1570 1571 1572 1572 1573 1574 1575 1575 1576 1577 1578 1578 1579 1580 1580 1581 1582 1583 1583 1584 1584
1552 1553 1554 1554 1556 1557 1558 1559 1560 1561 1562 1564 1565 1565 1566 1567 1567 1568 1569 1569 1568 1569 1569 1570 1571 1571 1572 1572 1573 1574 1575 1575 1576 1577 1578 1578 1579 1579 1580 1581 1581 1582 1582
1552 1553 1554 1555 1556 1557 1558 1559 1560 1561 1562 1563 1564 1565 1566 1566 1567 1567 1568 1569 1568 1568 1568 1569 1569 1570 1570 1571 1572 1572 1573 1573 1574 1575 1576 1576 1577 1578 1578 1578 1579 1580 1580
1553 1553 1555 1556 1556 1558 1559 1560 1560 1561 1562 1563 1563 1564 1565 1565 1565 1566 1567 1567 1568 1568 1567 1567 1568 1568 1569 1569 1569 1570 1571 1571 1572 1573 1573 1574 1575 1575 1576 1576 1577 1577 1578
1553 1553 1555 1556 1557 1558 1559 1560 1560 1561 1561 1561 1562 1563 1563 1564 1564 1565 1565 1565 1565 1566 1566 1566 1566 1566 1566 1567 1567 1568 1568 1569 1569 1570 1571 1571 1572 1572 1573 1573 1574 1574 1575
1552 1553 1554 1555 1556 1557 1557 1558 1558 1559 1560 1560 1561 1562 1562 1562 1562 1563 1563 1564 1564 1564 1564 1564 1564 1564 1564 1564 1565 1565 1566 1566 1566 1567 1567 1568 1568 1569 1569 1570 1570 1571 1572
1552 1552 1554 1554 1555 1555 1556 1557 1557 1558 1559 1559 1560 1560 1561 1561 1561 1561 1561 1561 1562 1562 1562 1562 1562 1562 1562 1562 1562 1562 1563 1563 1563 1564 1564 1565 1565 1565 1566 1566 1567 1567 1568
1551 1552 1552 1552 1553 1553 1554 1555 1556 1557 1557 1558 1559 1559 1559 1561 1559 1559 1559 1559 1560 1560 1560 1560 1560 1560 1560 1561 1560 1560 1560 1560 1560 1561 1561 1562 1562 1562 1562 1563 1563 1563 1564
1549 1550 1550 1551 1551 1552 1553 1553 1553 1554 1555 1556 1556 1558 1558 1557 1558 1558 1557 1557 1557 1558 1558 1558 1558 1557 1558 1558 1558 1557 1557 1557 1558 1558 1558 1559 1559 1559 1559 1559 1559 1559 1560
1547 1548 1549 1549 1549 1550 1550 1551 1551 1552 1553 1554 1554 1554 1555 1555 1556 1556 1556 1556 1556 1556 1556 1556 1556 1555 1555 1555 1555 1554 1554 1555 1555 1555 1555 1555 1555 1555 1556 1556 1555 1556 1556
1546 1546 1547 1547 1547 1547 1548 1548 1549 1549 1550 1551 1552 1552 1552 1553 1553 1554 1554 1555 1554 1554 1554 1554 1553 1553 1553 1552 1552 1552 1552 1552 1552 1552 1552 1552 1552 1552 1552 1552 1552 1552 1552
1544 1544 1545 1545 1545 1545 1545 1545 1546 1547 1548 1548 1549 1549 1550 1551 1551 1552 1552 1552 1552 1552 1552 1552 1552 1551 1551 1550 1550 1549 1549 1549 1549 1549 1549 1549 1549 1549 1548 1548 1548 1548 1548
1543 1542 1543 1542 1542 1542 1543 1543 1543 1544 1544 1545 1545 1546 1547 1548 1549 1549 1550 1550 1550 1550 1550 1550 1550 1549 1549 1549 1548 1547 1546 1546 1546 1546 1546 1546 1546 1545 1545 1545 1545 1545 1545
1540 1540 1540 1540 1540 1540 1540 1540 1541 1541 1542 1542 1543 1543 1544 1545 1546 1547 1547 1548 1548 1548 1548 1548 1548 1547 1546 1546 1545 1545 1544 1544 1543 1543 1543 1543 1543 1543 1542 1542 1542 1542 1542
1537 1537 1537 1537 1537 1537 1537 1538 1538 1538 1539 1539 1540 1540 1541 1542 1543 1544 1544 1545 1546 1545 1545 1545 1545 1545 1544 1544 1543 1542 1542 1541 1541 1541 1540 1540 1540 1540 1539 1539 1539 1539 1539
1534 1534 1534 1534 1534 1534 1534 1535 1535 1535 1536 1536 1536 1537 1537 1539 1540 1540 1541 1541 1542 1543 1542 1542 1543 1542 1541 1542 1540 1540 1539 1539 1538 1538 1537 1537 1537 1536 1536 1536 1536 1536 1536
1530 1530 1531 1531 1531 1531 1531 1531 1532 1532 1532 1533 1533 1534 1534 1535 1536 1537 1538 1538 1538 1539 1539 1540 1540 1539 1538 1538 1538 1537 1537 1537 1536 1535 1535 1534 1534 1533 1533 1533 1533 1532 1532
1527 1527 1527 1527 1527 1527 1527 1527 1528 1529 1529 1529 1529 1530 1530 1531 1532 1533 1534 1535 1535 1535 1536 1536 1537 1536 1535 1535 1534 1534 1535 1534 1533 1532 1531 1531 1531 1530 1530 1530 1529 1529 1529
1523 1524 1524 1524 1524 1524 1524 1524 1524 1525 1525 1525 1526 1526 1526 1527 1528 1529 1530 1531 1531 1532 1532 1533 1533 1533 1533 1532 1531 1531 1531 1531 1530 1529 1528 1528 1527 1527 1527 1527 1527 1526 1526
1520 1520 1520 1520 1520 1520 1520 1520 1520 1521 1521 1521 1521 1522 1522 1523 1524 1525 1526 1526 1527 1528 1528 1529 1529 1529 1529 1529 1528 1528 1528 1527 1527 1527 1526 1525 1524 1524 1524 1524 1524 1523 1523
1516 1516 1517 1516 1516 1516 1517 1517 1517 1517 1517 1517 1518 1518 1518 1519 1520 1521 1522 1522 1523 1524 1524 1525 1525 1525 1526 1525 1525 1525 1525 1524 1523 1523 1522 1522 1522 1521 1521 1521 1521 1520 1520
1513 1513 1513 1512 1512 1513 1512 1513 1513 1513 1513 1513 1514 1515 1515 1515 1516 1517 1517 1518 1519 1520 1520 1520 1521 1521 1521 1521 1521 1521 1521 1520 1520 1520 1519 1519 1519 1519 1518 1518 1517 1517 1517
1509 1509 1509 1508 1508 1508 1508 1508 1509 1509 1509 1509 1510 1511 1512 1512 1512 1513 1513 1513 1514 1515 1516 1516 1517 1516 1516 1516 1516 1516 1516 1516 1516 1516 1516 1515 1516 1515 1515 1514 1514 1514 1514
1505 1505 1505 1505 1504 1504 1504 1504 1504 1505 1505 1505 1506 1506 1507 1507 1508 1508 1509 1509 1510 1510 1511 1511 1511 1512 1512 1512 1512 1512 1513 1513 1512 1512 1512 1512 1512 1512 1512 1511 1510 1510 1510
1500 1500 1501 1501 1500 1500 1500 1500 1500 1500 1500 1501 1502 1502 1503 1503 1503 1504 1505 1505 1506 1506 1506 1506 1507 1507 1507 1507 1508 1508 1509 1509 1509 1509 1508 1509 1509 1509 1508 1508 1507 1507 1507
1496 1496 1496 1496 1496 1495 1495 1495 1495 1496 1496 1497 1497 1498 1498 1498 1499 1499 1500 1501 1502 1502 1503 1502 1502 1502 1503 1503 1503 1503 1504 1505 1505 1505 1504 1505 1505 1505 1505 1505 1504 1504 1503